Time,TemperatureF,DewpointF,PressureIn,WindDirection,WindDirectionDegrees,WindSpeedMPH,WindSpeedGustMPH,Humidity,HourlyPrecipIn,Conditions,Clouds,dailyrainin,SoftwareType,DateUTC
2013-04-05 07:22:00,36.5,28.6,29.94,SSE,162,4.0,-999.0,72,-99.99,,,-99.99,custom,2013-04-05 11:22:00,
2013-04-05 07:27:00,36.7,28.8,29.95,South,169,3.0,-999.0,72,-99.99,,,-99.99,custom,2013-04-05 11:27:00,
2013-04-05 07:32:00,36.7,28.6,29.94,SSE,160,3.0,-999.0,72,-99.99,,,-99.99,custom,2013-04-05 11:32:00,
2013-04-05 07:37:00,36.9,29.7,29.93,South,171,5.0,-999.0,74,-99.99,,,-99.99,custom,2013-04-05 11:37:00,
2013-04-05 07:42:00,37.0,30.2,29.93,SSE,166,4.0,-999.0,75,-99.99,,,-99.99,custom,2013-04-05 11:42:00,
2013-04-05 07:47:00,37.0,29.8,29.94,SSE,168,5.0,-999.0,74,-99.99,,,-99.99,custom,2013-04-05 11:47:00,
2013-04-05 07:52:00,37.0,30.2,29.95,SSE,167,5.0,-999.0,75,-99.99,,,-99.99,custom,2013-04-05 11:52:00,
2013-04-05 07:57:00,36.9,28.8,29.98,South,173,7.0,-999.0,71,-99.99,,,-99.99,custom,2013-04-05 11:57:00,
2013-04-05 08:02:00,37.0,28.2,29.91,SSW,210,9.0,-999.0,69,-99.99,,,-99.99,custom,2013-04-05 12:02:00,
2013-04-05 08:07:00,37.2,28.6,29.93,South,184,6.0,-999.0,70,-99.99,,,-99.99,custom,2013-04-05 12:07:00,
2013-04-05 08:12:00,37.6,29.1,29.93,SSW,193,6.0,-999.0,70,-99.99,,,-99.99,custom,2013-04-05 12:12:00,
2013-04-05 08:17:00,37.9,29.1,29.95,SSW,204,6.0,-999.0,70,-99.99,,,-99.99,custom,2013-04-05 12:17:00,
2013-04-05 08:22:00,38.1,28.9,29.97,SSW,200,10.0,-999.0,69,-99.99,,,-99.99,custom,2013-04-05 12:22:00,
2013-04-05 08:27:00,38.1,28.6,29.91,SSW,204,4.0,-999.0,67,-99.99,,,-99.99,custom,2013-04-05 12:27:00,
2013-04-05 08:32:00,38.5,29.3,29.95,SSW,193,7.0,-999.0,68,-99.99,,,-99.99,custom,2013-04-05 12:32:00,
2013-04-05 08:37:00,38.7,30.2,29.93,SSW,206,4.0,-999.0,71,-99.99,,,-99.99,custom,2013-04-05 12:37:00,
2013-04-05 08:42:00,39.0,28.2,29.93,South,191,5.0,-999.0,64,-99.99,,,-99.99,custom,2013-04-05 12:42:00,
2013-04-05 08:47:00,39.0,29.8,29.92,South,188,3.0,-999.0,69,-99.99,,,-99.99,custom,2013-04-05 12:47:00,
2013-04-05 08:52:00,39.6,29.1,29.93,South,180,4.0,-999.0,65,-99.99,,,-99.99,custom,2013-04-05 12:52:00,
2013-04-05 08:57:00,40.3,29.1,29.94,SSW,197,6.0,-999.0,63,-99.99,,,-99.99,custom,2013-04-05 12:57:00,
2013-04-05 09:02:00,40.6,27.7,29.92,South,181,6.0,-999.0,59,-99.99,,,-99.99,custom,2013-04-05 13:02:00,
2013-04-05 09:07:00,40.5,29.1,29.92,SSW,205,2.0,-999.0,63,-99.99,,,-99.99,custom,2013-04-05 13:07:00,
2013-04-05 09:12:00,40.1,26.6,29.89,SSW,208,6.0,-999.0,57,-99.99,,,-99.99,custom,2013-04-05 13:12:00,
2013-04-05 09:17:00,40.5,27.5,29.91,SSW,194,7.0,-999.0,59,-99.99,,,-99.99,custom,2013-04-05 13:17:00,
2013-04-05 09:23:00,40.5,26.6,29.88,SW,217,7.0,-999.0,57,-99.99,,,-99.99,custom,2013-04-05 13:23:00,
2013-04-05 09:28:00,40.6,26.6,29.90,SSW,198,6.0,-999.0,56,-99.99,,,-99.99,custom,2013-04-05 13:28:00,
2013-04-05 09:33:00,41.0,28.0,29.90,SSW,210,5.0,-999.0,59,-99.99,,,-99.99,custom,2013-04-05 13:33:00,
2013-04-05 09:38:00,40.8,27.3,29.91,SSW,192,6.0,-999.0,58,-99.99,,,-99.99,custom,2013-04-05 13:38:00,
2013-04-05 09:43:00,40.8,26.8,29.88,West,268,4.0,-999.0,56,-99.99,,,-99.99,custom,2013-04-05 13:43:00,
2013-04-05 09:48:00,40.8,26.1,29.87,SSW,200,11.0,-999.0,55,-99.99,,,-99.99,custom,2013-04-05 13:48:00,
2013-04-05 09:53:00,41.4,26.8,29.88,SSW,203,9.0,-999.0,55,-99.99,,,-99.99,custom,2013-04-05 13:53:00,
2013-04-05 09:58:00,42.1,27.5,29.88,SSW,199,5.0,-999.0,55,-99.99,,,-99.99,custom,2013-04-05 13:58:00,
2013-04-05 10:03:00,42.3,27.9,29.88,SSW,198,7.0,-999.0,56,-99.99,,,-99.99,custom,2013-04-05 14:03:00,
2013-04-05 10:08:00,42.1,26.4,29.91,SW,217,8.0,-999.0,53,-99.99,,,-99.99,custom,2013-04-05 14:08:00,
2013-04-05 10:13:00,42.1,25.5,29.89,SSW,192,7.0,-999.0,51,-99.99,,,-99.99,custom,2013-04-05 14:13:00,
2013-04-05 10:18:00,42.3,26.1,29.91,SSW,204,9.0,-999.0,52,-99.99,,,-99.99,custom,2013-04-05 14:18:00,
2013-04-05 10:23:00,41.9,25.9,29.89,SSW,201,8.0,-999.0,52,-99.99,,,-99.99,custom,2013-04-05 14:23:00,
2013-04-05 10:28:00,42.1,25.9,29.85,SSW,200,9.0,-999.0,52,-99.99,,,-99.99,custom,2013-04-05 14:28:00,
2013-04-05 10:33:00,42.3,26.2,29.89,South,185,5.0,-999.0,52,-99.99,,,-99.99,custom,2013-04-05 14:33:00,
2013-04-05 10:38:00,42.8,27.9,29.85,SSW,207,3.0,-999.0,55,-99.99,,,-99.99,custom,2013-04-05 14:38:00,
2013-04-05 10:43:00,42.4,26.6,29.86,South,176,4.0,-999.0,53,-99.99,,,-99.99,custom,2013-04-05 14:43:00,
2013-04-05 10:48:00,42.3,26.2,29.85,SSW,206,10.0,-999.0,52,-99.99,,,-99.99,custom,2013-04-05 14:48:00,
2013-04-05 10:53:00,42.3,25.2,29.87,SSW,196,8.0,-999.0,50,-99.99,,,-99.99,custom,2013-04-05 14:53:00,
2013-04-05 10:58:00,42.3,25.5,29.86,SSW,199,7.0,-999.0,50,-99.99,,,-99.99,custom,2013-04-05 14:58:00,
2013-04-05 11:03:00,42.3,26.1,29.82,SSW,196,8.0,-999.0,52,-99.99,,,-99.99,custom,2013-04-05 15:03:00,
2013-04-05 11:08:00,43.0,27.3,29.86,South,179,5.0,-999.0,53,-99.99,,,-99.99,custom,2013-04-05 15:08:00,
2013-04-05 11:13:00,43.7,28.0,29.84,SSW,197,6.0,-999.0,53,-99.99,,,-99.99,custom,2013-04-05 15:13:00,
2013-04-05 11:18:00,44.1,27.9,29.85,South,170,4.0,-999.0,52,-99.99,,,-99.99,custom,2013-04-05 15:18:00,
2013-04-05 11:23:00,43.9,26.1,29.86,SSW,194,6.0,-999.0,49,-99.99,,,-99.99,custom,2013-04-05 15:23:00,
2013-04-05 11:28:00,44.1,27.0,29.84,South,184,4.0,-999.0,50,-99.99,,,-99.99,custom,2013-04-05 15:28:00,
2013-04-05 11:33:00,45.0,28.0,29.83,South,180,4.0,-999.0,51,-99.99,,,-99.99,custom,2013-04-05 15:33:00,
2013-04-05 11:38:00,45.0,27.1,29.84,SSW,207,5.0,-999.0,49,-99.99,,,-99.99,custom,2013-04-05 15:38:00,
2013-04-05 11:43:00,45.9,28.9,29.84,South,184,3.0,-999.0,51,-99.99,,,-99.99,custom,2013-04-05 15:43:00,
2013-04-05 11:49:00,46.4,28.9,29.85,South,180,4.0,-999.0,50,-99.99,,,-99.99,custom,2013-04-05 15:49:00,
2013-04-05 11:54:00,47.7,30.0,29.82,SSE,152,3.0,-999.0,49,-99.99,,,-99.99,custom,2013-04-05 15:54:00,
2013-04-05 11:59:00,47.3,29.1,29.85,SSW,196,3.0,-999.0,49,-99.99,,,-99.99,custom,2013-04-05 15:59:00,
2013-04-05 12:04:00,47.3,28.4,29.85,SSE,156,3.0,-999.0,47,-99.99,,,-99.99,custom,2013-04-05 16:04:00,
2013-04-05 12:09:00,49.3,30.2,29.80,SE,142,2.0,-999.0,47,-99.99,,,-99.99,custom,2013-04-05 16:09:00,
2013-04-05 12:14:00,48.9,30.4,29.81,SSE,164,4.0,-999.0,48,-99.99,,,-99.99,custom,2013-04-05 16:14:00,
2013-04-05 12:19:00,50.2,31.5,29.80,SE,144,2.0,-999.0,48,-99.99,,,-99.99,custom,2013-04-05 16:19:00,
2013-04-05 12:24:00,50.2,30.4,29.81,SSE,155,3.0,-999.0,46,-99.99,,,-99.99,custom,2013-04-05 16:24:00,
2013-04-05 12:29:00,51.1,31.6,29.80,SSW,193,3.0,-999.0,47,-99.99,,,-99.99,custom,2013-04-05 16:29:00,
2013-04-05 12:34:00,52.3,31.8,29.80,SSE,166,2.0,-999.0,45,-99.99,,,-99.99,custom,2013-04-05 16:34:00,
2013-04-05 12:39:00,52.0,29.8,29.79,SSE,166,4.0,-999.0,42,-99.99,,,-99.99,custom,2013-04-05 16:39:00,
2013-04-05 12:44:00,51.8,30.9,29.77,SSE,162,3.0,-999.0,44,-99.99,,,-99.99,custom,2013-04-05 16:44:00,
2013-04-05 12:49:00,54.1,33.3,29.79,SSE,151,3.0,-999.0,45,-99.99,,,-99.99,custom,2013-04-05 16:49:00,
2013-04-05 12:54:00,53.4,30.6,29.78,SSE,164,3.0,-999.0,41,-99.99,,,-99.99,custom,2013-04-05 16:54:00,
2013-04-05 12:59:00,52.7,30.0,29.78,SW,225,4.0,-999.0,41,-99.99,,,-99.99,custom,2013-04-05 16:59:00,
2013-04-05 13:04:00,53.1,29.8,29.75,South,170,2.0,-999.0,40,-99.99,,,-99.99,custom,2013-04-05 17:04:00,
2013-04-05 13:09:00,53.4,30.7,29.78,South,185,3.0,-999.0,41,-99.99,,,-99.99,custom,2013-04-05 17:09:00,
2013-04-05 13:14:00,53.2,29.8,29.76,South,181,3.0,-999.0,40,-99.99,,,-99.99,custom,2013-04-05 17:14:00,
2013-04-05 13:19:00,54.7,31.5,29.76,SSE,159,3.0,-999.0,41,-99.99,,,-99.99,custom,2013-04-05 17:19:00,
2013-04-05 13:25:00,56.1,32.5,29.75,SSE,167,3.0,-999.0,40,-99.99,,,-99.99,custom,2013-04-05 17:25:00,
2013-04-05 13:30:00,55.6,31.8,29.74,South,169,4.0,-999.0,40,-99.99,,,-99.99,custom,2013-04-05 17:30:00,
2013-04-05 13:35:00,56.3,31.5,29.72,SSE,160,3.0,-999.0,38,-99.99,,,-99.99,custom,2013-04-05 17:35:00,
2013-04-05 13:40:00,57.2,32.2,29.72,SSE,160,2.0,-999.0,38,-99.99,,,-99.99,custom,2013-04-05 17:40:00,
2013-04-05 13:45:00,57.7,32.9,29.71,SE,124,2.0,-999.0,39,-99.99,,,-99.99,custom,2013-04-05 17:45:00,
2013-04-05 13:50:00,57.4,32.9,29.72,South,191,3.0,-999.0,39,-99.99,,,-99.99,custom,2013-04-05 17:50:00,
2013-04-05 13:55:00,58.3,33.1,29.70,SSE,156,3.0,-999.0,38,-99.99,,,-99.99,custom,2013-04-05 17:55:00,
2013-04-05 14:00:00,58.6,33.8,29.75,SE,137,3.0,-999.0,39,-99.99,,,-99.99,custom,2013-04-05 18:00:00,
2013-04-05 14:05:00,58.5,30.6,29.74,North,1,3.0,-999.0,34,-99.99,,,-99.99,custom,2013-04-05 18:05:00,
2013-04-05 14:10:00,58.5,36.7,29.72,SE,133,0.0,-999.0,44,-99.99,,,-99.99,custom,2013-04-05 18:10:00,
2013-04-05 14:15:00,60.1,30.6,29.72,ESE,102,4.0,-999.0,32,-99.99,,,-99.99,custom,2013-04-05 18:15:00,
2013-04-05 14:20:00,61.0,32.0,29.68,South,179,3.0,-999.0,33,-99.99,,,-99.99,custom,2013-04-05 18:20:00,
2013-04-05 14:25:00,56.7,26.2,29.68,WSW,237,4.0,-999.0,30,-99.99,,,-99.99,custom,2013-04-05 18:25:00,
2013-04-05 14:30:00,57.2,24.6,29.69,SSW,207,2.0,-999.0,28,-99.99,,,-99.99,custom,2013-04-05 18:30:00,
2013-04-05 14:35:00,57.6,24.6,29.68,WSW,237,8.0,-999.0,27,-99.99,,,-99.99,custom,2013-04-05 18:35:00,
2013-04-05 14:40:00,57.2,22.1,29.69,SSW,205,2.0,-999.0,25,-99.99,,,-99.99,custom,2013-04-05 18:40:00,
2013-04-05 14:45:00,58.5,23.2,29.67,SW,234,2.0,-999.0,25,-99.99,,,-99.99,custom,2013-04-05 18:45:00,
2013-04-05 14:50:00,60.4,23.9,29.67,NNE,16,1.0,-999.0,24,-99.99,,,-99.99,custom,2013-04-05 18:50:00,
2013-04-05 14:55:00,59.7,23.2,29.67,WNW,292,2.0,-999.0,24,-99.99,,,-99.99,custom,2013-04-05 18:55:00,
2013-04-05 15:00:00,58.5,21.6,29.67,NW,321,4.0,-999.0,23,-99.99,,,-99.99,custom,2013-04-05 19:00:00,
2013-04-05 15:05:00,59.9,24.4,29.67,WSW,242,2.0,-999.0,25,-99.99,,,-99.99,custom,2013-04-05 19:05:00,
2013-04-05 15:10:00,59.9,22.1,29.65,West,262,0.0,-999.0,23,-99.99,,,-99.99,custom,2013-04-05 19:10:00,
2013-04-05 15:15:00,59.2,21.7,29.65,NW,307,5.0,-999.0,23,-99.99,,,-99.99,custom,2013-04-05 19:15:00,
2013-04-05 15:20:00,58.3,24.4,29.67,NW,318,8.0,-999.0,26,-99.99,,,-99.99,custom,2013-04-05 19:20:00,
2013-04-05 15:25:00,59.4,26.8,29.67,WNW,285,2.0,-999.0,28,-99.99,,,-99.99,custom,2013-04-05 19:25:00,
2013-04-05 15:30:00,61.0,30.6,29.69,SW,225,2.0,-999.0,31,-99.99,,,-99.99,custom,2013-04-05 19:30:00,
2013-04-05 15:35:00,59.2,28.8,29.68,WSW,251,2.0,-999.0,31,-99.99,,,-99.99,custom,2013-04-05 19:35:00,
2013-04-05 15:40:00,58.6,27.5,29.68,NW,316,3.0,-999.0,30,-99.99,,,-99.99,custom,2013-04-05 19:40:00,
2013-04-05 15:45:00,58.3,26.4,29.69,WSW,253,2.0,-999.0,29,-99.99,,,-99.99,custom,2013-04-05 19:45:00,
2013-04-05 15:50:00,58.3,25.7,29.68,WSW,238,4.0,-999.0,28,-99.99,,,-99.99,custom,2013-04-05 19:50:00,
2013-04-05 15:55:00,59.7,27.7,29.66,WNW,286,1.0,-999.0,29,-99.99,,,-99.99,custom,2013-04-05 19:55:00,
2013-04-05 16:00:00,59.4,27.7,29.70,NW,324,1.0,-999.0,29,-99.99,,,-99.99,custom,2013-04-05 20:00:00,
2013-04-05 16:05:00,60.6,30.4,29.67,NE,41,1.0,-999.0,31,-99.99,,,-99.99,custom,2013-04-05 20:05:00,
2013-04-05 16:10:00,58.8,26.2,29.65,WNW,297,3.0,-999.0,28,-99.99,,,-99.99,custom,2013-04-05 20:10:00,
2013-04-05 16:15:00,58.6,27.0,29.70,WSW,255,6.0,-999.0,29,-99.99,,,-99.99,custom,2013-04-05 20:15:00,
2013-04-05 16:20:00,60.4,29.3,29.68,WSW,250,1.0,-999.0,30,-99.99,,,-99.99,custom,2013-04-05 20:20:00,
2013-04-05 16:25:00,59.9,28.6,29.68,NNW,338,2.0,-999.0,30,-99.99,,,-99.99,custom,2013-04-05 20:25:00,
2013-04-05 16:30:00,59.5,26.4,29.69,NW,318,5.0,-999.0,28,-99.99,,,-99.99,custom,2013-04-05 20:30:00,
2013-04-05 16:35:00,58.1,25.2,29.67,WNW,303,4.0,-999.0,27,-99.99,,,-99.99,custom,2013-04-05 20:35:00,
2013-04-05 16:40:00,58.6,27.3,29.68,WSW,247,5.0,-999.0,29,-99.99,,,-99.99,custom,2013-04-05 20:40:00,
2013-04-05 16:45:00,59.7,29.7,29.70,NW,318,7.0,-999.0,31,-99.99,,,-99.99,custom,2013-04-05 20:45:00,
2013-04-05 16:50:00,60.1,28.8,29.67,NE,43,2.0,-999.0,30,-99.99,,,-99.99,custom,2013-04-05 20:50:00,
2013-04-05 16:55:00,58.1,25.5,29.65,NW,307,6.0,-999.0,28,-99.99,,,-99.99,custom,2013-04-05 20:55:00,
2013-04-05 17:00:00,58.3,28.2,29.68,WNW,302,3.0,-999.0,31,-99.99,,,-99.99,custom,2013-04-05 21:00:00,
2013-04-05 17:05:00,59.0,25.9,29.69,NNW,333,3.0,-999.0,27,-99.99,,,-99.99,custom,2013-04-05 21:05:00,
2013-04-05 17:10:00,58.6,25.3,29.68,NNW,327,5.0,-999.0,27,-99.99,,,-99.99,custom,2013-04-05 21:10:00,
2013-04-05 17:15:00,58.1,26.6,29.69,West,265,2.0,-999.0,29,-99.99,,,-99.99,custom,2013-04-05 21:15:00,
2013-04-05 17:20:00,56.7,24.6,29.67,WNW,288,4.0,-999.0,28,-99.99,,,-99.99,custom,2013-04-05 21:20:00,
2013-04-05 17:25:00,56.5,25.3,29.67,NW,321,5.0,-999.0,29,-99.99,,,-99.99,custom,2013-04-05 21:25:00,
2013-04-05 17:30:00,56.5,25.0,29.69,NW,319,3.0,-999.0,29,-99.99,,,-99.99,custom,2013-04-05 21:30:00,
2013-04-05 17:35:00,56.8,26.1,29.71,NW,304,6.0,-999.0,30,-99.99,,,-99.99,custom,2013-04-05 21:35:00,
2013-04-05 17:40:00,57.4,27.3,29.69,NNE,13,1.0,-999.0,31,-99.99,,,-99.99,custom,2013-04-05 21:40:00,
2013-04-05 17:45:00,55.2,22.5,29.69,WNW,296,9.0,-999.0,27,-99.99,,,-99.99,custom,2013-04-05 21:45:00,
2013-04-05 17:50:00,56.8,29.1,29.70,WSW,252,4.0,-999.0,34,-99.99,,,-99.99,custom,2013-04-05 21:50:00,
2013-04-05 17:55:00,55.4,25.0,29.72,NW,307,3.0,-999.0,30,-99.99,,,-99.99,custom,2013-04-05 21:55:00,
2013-04-05 18:00:00,54.5,23.0,29.72,West,273,6.0,-999.0,29,-99.99,,,-99.99,custom,2013-04-05 22:00:00,
2013-04-05 18:05:00,55.9,28.2,29.68,ENE,67,1.0,-999.0,34,-99.99,,,-99.99,custom,2013-04-05 22:05:00,
2013-04-05 18:10:00,54.9,23.4,29.69,NW,314,6.0,-999.0,29,-99.99,,,-99.99,custom,2013-04-05 22:10:00,
2013-04-05 18:15:00,55.0,25.2,29.70,WNW,301,1.0,-999.0,31,-99.99,,,-99.99,custom,2013-04-05 22:15:00,
2013-04-05 18:21:00,54.5,22.3,29.70,NW,304,2.0,-999.0,28,-99.99,,,-99.99,custom,2013-04-05 22:21:00,
2013-04-05 18:26:00,53.8,24.8,29.69,WNW,291,3.0,-999.0,32,-99.99,,,-99.99,custom,2013-04-05 22:26:00,
2013-04-05 18:31:00,53.1,23.4,29.72,NNW,331,1.0,-999.0,31,-99.99,,,-99.99,custom,2013-04-05 22:31:00,
2013-04-05 18:36:00,51.8,20.8,29.71,NW,310,4.0,-999.0,29,-99.99,,,-99.99,custom,2013-04-05 22:36:00,
2013-04-05 18:41:00,51.6,22.3,29.70,NNW,335,3.0,-999.0,31,-99.99,,,-99.99,custom,2013-04-05 22:41:00,
2013-04-05 18:46:00,51.6,23.2,29.72,NW,312,4.0,-999.0,32,-99.99,,,-99.99,custom,2013-04-05 22:46:00,
2013-04-05 18:51:00,51.1,21.4,29.74,North,9,3.0,-999.0,30,-99.99,,,-99.99,custom,2013-04-05 22:51:00,
2013-04-05 18:56:00,51.1,24.1,29.74,NNE,20,1.0,-999.0,34,-99.99,,,-99.99,custom,2013-04-05 22:56:00,
2013-04-05 19:01:00,50.9,21.7,29.72,NW,325,2.0,-999.0,31,-99.99,,,-99.99,custom,2013-04-05 23:01:00,
2013-04-05 19:06:00,50.9,24.4,29.73,ENE,64,2.0,-999.0,35,-99.99,,,-99.99,custom,2013-04-05 23:06:00,
2013-04-05 19:11:00,50.7,25.2,29.72,NW,313,0.0,-999.0,36,-99.99,,,-99.99,custom,2013-04-05 23:11:00,
2013-04-05 19:16:00,50.2,26.1,29.74,SE,132,0.0,-999.0,38,-99.99,,,-99.99,custom,2013-04-05 23:16:00,
2013-04-05 19:21:00,50.2,23.2,29.77,NNW,329,1.0,-999.0,34,-99.99,,,-99.99,custom,2013-04-05 23:21:00,
2013-04-05 19:27:00,50.0,22.8,29.84,NE,35,0.0,-999.0,34,-99.99,,,-99.99,custom,2013-04-05 23:27:00,
2013-04-05 19:32:00,49.8,24.6,29.77,ENE,64,2.0,-999.0,36,-99.99,,,-99.99,custom,2013-04-05 23:32:00,
2013-04-05 19:37:00,49.8,23.7,29.81,ENE,65,1.0,-999.0,35,-99.99,,,-99.99,custom,2013-04-05 23:37:00,
2013-04-05 19:42:00,49.3,24.3,29.77,NE,47,2.0,-999.0,37,-99.99,,,-99.99,custom,2013-04-05 23:42:00,
2013-04-05 19:47:00,48.9,24.6,29.78,SW,222,0.0,-999.0,38,-99.99,,,-99.99,custom,2013-04-05 23:47:00,
2013-04-05 19:52:00,48.6,25.0,29.80,North,5,2.0,-999.0,39,-99.99,,,-99.99,custom,2013-04-05 23:52:00,
2013-04-05 19:57:00,48.2,25.3,29.80,NE,54,4.0,-999.0,40,-99.99,,,-99.99,custom,2013-04-05 23:57:00,
2013-04-05 20:02:00,47.7,26.6,29.78,North,3,3.0,-999.0,43,-99.99,,,-99.99,custom,2013-04-06 00:02:00,
2013-04-05 20:07:00,47.5,26.6,29.80,North,357,3.0,-999.0,43,-99.99,,,-99.99,custom,2013-04-06 00:07:00,
2013-04-05 20:12:00,47.1,26.8,29.81,North,8,3.0,-999.0,44,-99.99,,,-99.99,custom,2013-04-06 00:12:00,
2013-04-05 20:17:00,46.6,25.7,29.78,NW,323,8.0,-999.0,43,-99.99,,,-99.99,custom,2013-04-06 00:17:00,
2013-04-05 20:22:00,46.0,26.1,29.81,NNW,348,5.0,-999.0,45,-99.99,,,-99.99,custom,2013-04-06 00:22:00,
2013-04-05 20:27:00,46.0,28.6,29.79,NNE,13,1.0,-999.0,50,-99.99,,,-99.99,custom,2013-04-06 00:27:00,
2013-04-05 20:32:00,45.5,26.2,29.78,North,355,5.0,-999.0,46,-99.99,,,-99.99,custom,2013-04-06 00:32:00,
2013-04-05 20:37:00,45.1,25.9,29.82,NNE,13,3.0,-999.0,46,-99.99,,,-99.99,custom,2013-04-06 00:37:00,
2013-04-05 20:42:00,44.6,25.5,29.81,NNW,335,5.0,-999.0,46,-99.99,,,-99.99,custom,2013-04-06 00:42:00,
2013-04-05 20:47:00,44.2,25.0,29.80,NE,34,10.0,-999.0,46,-99.99,,,-99.99,custom,2013-04-06 00:47:00,
2013-04-05 20:52:00,43.9,26.2,29.83,SW,220,1.0,-999.0,49,-99.99,,,-99.99,custom,2013-04-06 00:52:00,
2013-04-05 20:57:00,43.7,24.4,29.82,NW,306,8.0,-999.0,46,-99.99,,,-99.99,custom,2013-04-06 00:57:00,
2013-04-05 21:02:00,43.7,25.0,29.83,North,10,2.0,-999.0,47,-99.99,,,-99.99,custom,2013-04-06 01:02:00,
2013-04-05 21:07:00,43.3,25.3,29.84,NNE,15,4.0,-999.0,48,-99.99,,,-99.99,custom,2013-04-06 01:07:00,
2013-04-05 21:12:00,43.2,27.9,29.85,North,355,3.0,-999.0,54,-99.99,,,-99.99,custom,2013-04-06 01:12:00,
2013-04-05 21:17:00,42.8,27.1,29.85,North,352,1.0,-999.0,53,-99.99,,,-99.99,custom,2013-04-06 01:17:00,
2013-04-05 21:22:00,42.4,26.1,29.85,North,7,4.0,-999.0,51,-99.99,,,-99.99,custom,2013-04-06 01:22:00,
2013-04-05 21:27:00,41.9,25.3,29.87,North,353,4.0,-999.0,51,-99.99,,,-99.99,custom,2013-04-06 01:27:00,
2013-04-05 21:32:00,41.4,26.2,29.88,North,355,3.0,-999.0,54,-99.99,,,-99.99,custom,2013-04-06 01:32:00,
2013-04-05 21:37:00,41.2,26.6,29.88,NE,34,5.0,-999.0,55,-99.99,,,-99.99,custom,2013-04-06 01:37:00,
2013-04-05 21:42:00,40.6,27.7,29.88,NNE,31,2.0,-999.0,59,-99.99,,,-99.99,custom,2013-04-06 01:42:00,
2013-04-05 21:47:00,40.5,28.8,29.90,SW,230,0.0,-999.0,62,-99.99,,,-99.99,custom,2013-04-06 01:47:00,
2013-04-05 21:52:00,40.3,28.4,29.91,North,2,2.0,-999.0,61,-99.99,,,-99.99,custom,2013-04-06 01:52:00,
2013-04-05 21:57:00,39.7,28.6,29.84,NNW,334,3.0,-999.0,63,-99.99,,,-99.99,custom,2013-04-06 01:57:00,
2013-04-05 22:02:00,39.7,27.1,29.88,NW,319,11.0,-999.0,60,-99.99,,,-99.99,custom,2013-04-06 02:02:00,
2013-04-05 22:07:00,39.6,27.9,29.88,NNW,331,5.0,-999.0,62,-99.99,,,-99.99,custom,2013-04-06 02:07:00,
2013-04-05 22:12:00,39.4,28.9,29.87,NNW,335,5.0,-999.0,65,-99.99,,,-99.99,custom,2013-04-06 02:12:00,
2013-04-05 22:17:00,39.4,29.5,29.88,ENE,61,0.0,-999.0,67,-99.99,,,-99.99,custom,2013-04-06 02:17:00,
2013-04-05 22:22:00,38.8,28.2,29.86,NNE,23,4.0,-999.0,65,-99.99,,,-99.99,custom,2013-04-06 02:22:00,
2013-04-05 22:27:00,38.7,27.0,29.88,NNW,338,4.0,-999.0,62,-99.99,,,-99.99,custom,2013-04-06 02:27:00,
2013-04-05 22:32:00,38.7,28.0,29.88,North,10,1.0,-999.0,65,-99.99,,,-99.99,custom,2013-04-06 02:32:00,
2013-04-05 22:37:00,38.7,29.7,29.88,West,259,0.0,-999.0,69,-99.99,,,-99.99,custom,2013-04-06 02:37:00,
2013-04-05 22:42:00,38.5,27.1,29.89,NNW,348,5.0,-999.0,63,-99.99,,,-99.99,custom,2013-04-06 02:42:00,
2013-04-05 22:47:00,38.3,28.8,29.89,North,5,1.0,-999.0,67,-99.99,,,-99.99,custom,2013-04-06 02:47:00,
2013-04-05 22:52:00,37.9,29.3,29.88,East,86,0.0,-999.0,70,-99.99,,,-99.99,custom,2013-04-06 02:52:00,
2013-04-05 22:57:00,37.8,31.6,29.86,East,83,2.0,-999.0,77,-99.99,,,-99.99,custom,2013-04-06 02:57:00,
2013-04-05 23:02:00,37.8,29.3,29.87,NW,304,2.0,-999.0,70,-99.99,,,-99.99,custom,2013-04-06 03:02:00,
2013-04-05 23:07:00,37.4,29.8,29.88,NW,304,1.0,-999.0,73,-99.99,,,-99.99,custom,2013-04-06 03:07:00,
2013-04-05 23:12:00,37.2,28.8,29.89,NW,305,2.0,-999.0,70,-99.99,,,-99.99,custom,2013-04-06 03:12:00,
2013-04-05 23:18:00,37.2,28.8,29.90,NW,307,0.0,-999.0,71,-99.99,,,-99.99,custom,2013-04-06 03:18:00,
2013-04-05 23:23:00,37.2,29.7,29.91,ENE,76,2.0,-999.0,73,-99.99,,,-99.99,custom,2013-04-06 03:23:00,
2013-04-05 23:28:00,37.0,29.3,29.89,NW,315,1.0,-999.0,73,-99.99,,,-99.99,custom,2013-04-06 03:28:00,
2013-04-05 23:33:00,37.0,30.7,29.90,ESE,103,0.0,-999.0,77,-99.99,,,-99.99,custom,2013-04-06 03:33:00,
2013-04-05 23:38:00,36.9,29.1,29.92,ESE,122,2.0,-999.0,73,-99.99,,,-99.99,custom,2013-04-06 03:38:00,
2013-04-05 23:43:00,36.9,31.6,29.89,SSE,154,0.0,-999.0,81,-99.99,,,-99.99,custom,2013-04-06 03:43:00,
2013-04-05 23:48:00,36.5,27.7,29.90,NNW,330,1.0,-999.0,69,-99.99,,,-99.99,custom,2013-04-06 03:48:00,
2013-04-05 23:53:00,36.3,28.4,29.91,North,356,2.0,-999.0,72,-99.99,,,-99.99,custom,2013-04-06 03:53:00,
2013-04-05 23:58:00,36.3,28.0,29.90,NNE,31,1.0,-999.0,71,-99.99,,,-99.99,custom,2013-04-06 03:58:00,